CW9887 Weather Reports


time (UTC)temp
C
wind
direction
speed
KPH
gust
KPH
rain 1hr
cm
rain 24hr
cm
rain mn
cm
humidity
%
barometer
mb
20260507010357 12 234 4.8 0.0 0.00 0.00 0.66 99 1004.1
20260507004856 12 269 6.4 0.0 0.00 0.00 0.66 99 1004.0
20260507004557 12 275 6.4 0.0 0.00 0.00 0.66 99 1003.7
20260507003353 12 234 6.4 0.0 0.00 0.00 0.64 99 1003.7
20260507003053 12 319 6.4 0.0 0.00 0.00 0.61 99 1003.5
20260507001849 14 297 3.2 0.0 0.00 0.00 0.51 100 1003.4
20260507001534 13 261 3.2 0.0 0.00 0.00 0.51 100 1003.0
20260507000354 14 250 4.8 0.0 0.00 0.00 0.46 100 1003.1
20260507000013 13 236 4.8 0.0 0.00 0.00 0.46 100 1002.8
20260506234605 13 246 4.8 0.0 0.00 0.00 0.43 100 1002.6
20260506233348 14 196 4.8 0.0 0.00 0.00 0.43 100 1003.0
20260506233050 13 287 6.4 0.0 0.00 0.00 0.43 100 1002.7
20260506231848 14 267 6.4 0.0 0.00 0.00 0.43 99 1002.9
20260506231531 14 248 6.4 0.0 0.00 0.00 0.43 99 1002.7
20260506230349 14 235 4.8 0.0 0.00 0.00 0.43 99 1002.9
20260506230048 14 200 4.8 0.0 0.00 0.00 0.43 99 1002.7
20260506224845 15 272 4.8 0.0 0.00 0.00 0.43 99 1002.9
20260506224548 14 192 4.8 0.0 0.00 0.00 0.43 99 1002.7
20260506223345 15 196 4.8 0.0 0.00 0.00 0.43 99 1003.0
20260506223049 14 154 6.4 0.0 0.00 0.00 0.43 99 1002.7
20260506221842 15 203 4.8 0.0 0.00 0.00 0.43 99 1002.9
20260506221544 15 188 4.8 0.0 0.00 0.00 0.43 99 1002.6
20260506220046 15 215 6.4 0.0 0.00 0.00 0.43 99 1002.8
20260506214843 15 207 4.8 0.0 0.00 0.00 0.43 99 1003.1
20260506214557 15 217 4.8 0.0 0.00 0.00 0.43 99 1002.8
20260506213355 15 190 6.4 0.0 0.00 0.00 0.43 99 1003.1
20260506213051 15 263 4.8 0.0 0.00 0.00 0.43 99 1002.8
20260506211848 15 213 4.8 0.0 0.00 0.00 0.43 99 1003.3
20260506211547 15 203 4.8 0.0 0.00 0.00 0.43 99 1003.0
20260506210347 15 188 4.8 0.0 0.00 0.00 0.43 99 1003.3
20260506210042 15 197 4.8 0.0 0.00 0.00 0.43 99 1003.1
20260506204839 15 195 6.4 0.0 0.00 0.00 0.43 99 1003.3
20260506204512 15 213 4.8 0.0 0.00 0.00 0.43 99 1003.0
20260506203052 15 229 4.8 0.0 0.00 0.00 0.43 99 1003.2
20260506201847 15 202 3.2 0.0 0.00 0.00 0.41 99 1003.6
20260506201553 15 186 3.2 0.0 0.00 0.00 0.41 99 1003.4
20260506200345 15 192 3.2 0.0 0.00 0.00 0.41 99 1004.0
20260506200112 15 178 1.6 0.0 0.00 0.00 0.41 99 1003.6
20260506194855 15 202 3.2 0.0 0.00 0.00 0.41 99 1004.0
20260506194611 15 213 3.2 0.0 0.00 0.00 0.38 99 1003.7
20260506193351 15 281 3.2 0.0 0.00 0.00 0.36 98 1004.1
20260506193046 15 253 3.2 0.0 0.00 0.00 0.33 98 1003.8
20260506191843 15 182 3.2 0.0 0.00 0.00 0.28 98 1004.2
20260506191546 15 241 3.2 0.0 0.00 0.00 0.28 98 1003.7
20260506190343 15 210 6.4 0.0 0.00 0.00 0.25 98 1004.4
20260506190047 15 196 4.8 0.0 0.00 0.00 0.25 98 1003.9
20260506184844 15 210 4.8 0.0 0.00 0.00 0.23 97 1004.7
20260506184544 15 215 4.8 0.0 0.00 0.00 0.20 97 1004.3
20260506183340 15 235 4.8 0.0 0.00 0.00 0.20 97 1004.9
20260506183002 15 206 4.8 0.0 0.00 0.00 0.20 97 1004.6
20260506181858 15 234 4.8 0.0 0.00 0.00 0.20 97 1005.1
20260506181547 15 208 4.8 0.0 0.00 0.00 0.18 97 1004.7
20260506180357 15 259 4.8 0.0 0.00 0.00 0.15 96 1005.4
20260506180056 15 230 4.8 0.0 0.00 0.00 0.15 96 1005.0
20260506174854 15 207 4.8 0.0 0.00 0.00 0.10 95 1005.5
20260506174602 15 244 4.8 0.0 0.00 0.00 0.10 95 1005.0
20260506173354 16 268 3.2 0.0 0.00 0.00 0.05 94 1005.5
20260506173015 16 209 3.2 0.0 0.00 0.00 0.05 93 1005.1
20260506171543 16 288 3.2 0.0 0.00 0.00 0.03 90 1005.0
20260506170353 17 262 3.2 0.0 0.00 0.00 0.00 87 1005.4
20260506170016 17 262 3.2 0.0 0.00 0.00 0.00 86 1004.8
20260506164514 17 261 4.8 0.0 0.00 0.00 0.00 84 1005.0
20260506163055 17 257 4.8 0.0 0.00 0.00 0.00 82 1005.0
20260506161849 18 196 4.8 0.0 0.00 0.00 0.00 83 1005.7
20260506161539 17 205 3.2 0.0 0.00 0.00 0.00 83 1005.2
20260506160355 17 171 3.2 0.0 0.00 0.00 0.00 86 1006.1
20260506160057 17 228 3.2 0.0 0.00 0.00 0.00 85 1005.7
20260506154853 17 216 3.2 0.0 0.00 0.00 0.00 85 1006.5
20260506154554 17 213 3.2 0.0 0.00 0.00 0.00 84 1006.1
20260506153349 17 232 4.8 0.0 0.00 0.00 0.00 83 1007.0
20260506153053 17 269 4.8 0.0 0.00 0.00 0.00 83 1006.4
20260506151851 17 211 4.8 0.0 0.00 0.00 0.00 83 1006.7
20260506151542 17 282 4.8 0.0 0.00 0.00 0.00 83 1006.4
20260506150351 17 255 4.8 0.0 0.00 0.00 0.00 83 1007.0
20260506150049 17 261 6.4 0.0 0.00 0.00 0.00 83 1006.4
20260506144847 17 236 4.8 0.0 0.00 0.00 0.00 84 1006.6
20260506144549 17 193 4.8 0.0 0.00 0.00 0.00 84 1006.3
20260506143347 17 183 3.2 0.0 0.00 0.00 0.00 86 1007.0
20260506143053 16 254 1.6 0.0 0.00 0.00 0.00 85 1006.4
20260506141843 16 182 3.2 0.0 0.00 0.00 0.00 86 1006.9
20260506141545 16 182 3.2 0.0 0.00 0.00 0.00 86 1006.4
20260506140018 15 214 1.6 0.0 0.00 0.00 0.00 87 1006.4
20260506134916 15 204 3.2 0.0 0.00 0.00 0.00 87 1006.8
20260506134551 15 205 3.2 0.0 0.00 0.00 0.00 87 1006.3
20260506133421 15 234 1.6 0.0 0.00 0.00 0.00 86 1007.2
20260506133052 15 236 1.6 0.0 0.00 0.00 0.00 87 1006.9
20260506131849 15 196 1.6 0.0 0.00 0.00 0.00 87 1007.5
20260506131531 15 196 1.6 0.0 0.00 0.00 0.00 88 1007.0
20260506130354 15 236 3.2 0.0 0.00 0.00 0.00 87 1007.4
20260506130110 15 209 3.2 0.0 0.00 0.00 0.00 87 1006.8
20260506124850 15 191 3.2 0.0 0.00 0.00 0.00 86 1007.4
20260506124548 15 200 4.8 0.0 0.00 0.00 0.00 86 1007.0
20260506123346 15 223 3.2 0.0 0.00 0.00 0.00 86 1007.3
20260506123049 15 165 3.2 0.0 0.00 0.00 0.00 86 1006.7
20260506121846 15 203 1.6 0.0 0.00 0.00 0.00 87 1007.3
20260506121528 14 258 3.2 0.0 0.00 0.00 0.00 87 1006.8
20260506120047 14 197 3.2 0.0 0.00 0.00 0.00 87 1006.9
20260506114847 14 155 1.6 0.0 0.00 0.00 0.00 87 1007.7
20260506114548 13 155 1.6 0.0 0.00 0.00 0.00 87 1007.1
20260506113346 14 155 1.6 0.0 0.00 0.00 0.00 87 1007.5
20260506113049 13 155 1.6 0.0 0.00 0.00 0.00 87 1007.1
20260506111843 13 155 3.2 0.0 0.00 0.00 0.00 86 1007.5
20260506111545 13 155 1.6 0.0 0.00 0.00 0.00 86 1007.0
20260506110344 13 167 1.6 0.0 0.00 0.00 0.00 87 1007.5
20260506110051 13 167 1.6 0.0 0.00 0.00 0.00 87 1007.0
20260506104843 13 170 3.2 0.0 0.00 0.00 0.00 86 1007.5
20260506104541 13 197 3.2 0.0 0.00 0.00 0.00 86 1007.0
20260506103340 14 197 3.2 0.0 0.00 0.00 0.00 85 1007.7
20260506103047 13 199 3.2 0.0 0.00 0.00 0.00 85 1007.1
20260506101840 14 271 3.2 0.0 0.00 0.00 0.00 85 1007.8
20260506101552 13 234 3.2 0.0 0.00 0.00 0.00 85 1007.1
20260506100340 13 207 1.6 0.0 0.00 0.00 0.00 85 1007.6
20260506100039 13 209 1.6 0.0 0.00 0.00 0.00 86 1007.0
20260506094838 13 267 0.0 0.0 0.00 0.00 0.00 86 1007.4
20260506094547 13 273 0.0 0.0 0.00 0.00 0.00 86 1006.8
20260506093338 13 272 0.0 0.0 0.00 0.00 0.00 85 1007.6
20260506093105 13 272 0.0 0.0 0.00 0.00 0.00 85 1007.0
20260506091855 13 273 0.0 0.0 0.00 0.00 0.00 85 1007.4
20260506091537 13 273 0.0 0.0 0.00 0.00 0.00 85 1006.7
20260506090356 13 273 0.0 0.0 0.00 0.00 0.00 85 1007.3
20260506084856 14 273 1.6 0.0 0.00 0.00 0.00 84 1007.3
20260506084555 13 273 3.2 0.0 0.00 0.00 0.00 84 1007.0
20260506083352 14 270 3.2 0.0 0.00 0.00 0.00 83 1007.6
20260506083053 13 269 3.2 0.0 0.00 0.00 0.00 83 1007.1
20260506081850 14 259 3.2 0.0 0.00 0.00 0.00 83 1007.6
20260506081532 14 261 3.2 0.0 0.00 0.00 0.00 83 1007.0
20260506080356 15 248 1.6 0.0 0.00 0.00 0.00 82 1007.6
20260506073058 15 221 3.2 0.0 0.00 0.00 0.00 82 1007.1
20260506071851 15 215 3.2 0.0 0.00 0.00 0.00 81 1007.2
20260506071543 15 221 3.2 0.0 0.00 0.00 0.00 81 1006.8
20260506070352 15 226 3.2 0.0 0.00 0.00 0.00 82 1007.4
20260506061845 15 208 3.2 0.0 0.00 0.00 0.00 82 1007.3
20260506061528 15 205 3.2 0.0 0.00 0.00 0.00 82 1006.8
20260506060351 15 89 0.0 0.0 0.00 0.00 0.00 84 1007.2
20260506050355 16 255 3.2 0.0 0.00 0.00 0.00 83 1007.1
20260506044855 16 272 3.2 0.0 0.00 0.00 0.00 84 1007.3
20260506044540 16 202 3.2 0.0 0.00 0.00 0.00 84 1006.8
20260506043338 16 189 3.2 0.0 0.00 0.00 0.00 84 1007.2
20260506043021 16 237 3.2 0.0 0.00 0.00 0.00 85 1006.7
20260506041556 15 233 3.2 0.0 0.00 0.00 0.00 87 1006.6
20260506040342 16 258 1.6 0.0 0.00 0.00 0.00 88 1007.2
20260506040007 15 252 1.6 0.0 0.00 0.00 0.00 88 1006.6
20260506034554 15 207 3.2 0.0 0.00 0.00 0.05 88 1006.6
20260506033348 16 225 1.6 0.0 0.00 0.00 0.05 88 1007.1
20260506033055 15 213 1.6 0.0 0.00 0.00 0.05 88 1006.6
20260506031851 16 248 3.2 0.0 0.00 0.00 0.05 89 1007.0
20260506031538 15 182 3.2 0.0 0.00 0.00 0.05 89 1006.5
20260506030354 15 265 3.2 0.0 0.00 0.00 0.05 90 1007.1
20260506030057 15 265 3.2 0.0 0.00 0.00 0.05 89 1006.6
20260506024543 15 261 1.6 0.0 0.00 0.00 0.05 88 1006.7
20260506023340 16 261 1.6 0.0 0.00 0.00 0.05 87 1007.0
20260506023043 15 261 1.6 0.0 0.00 0.00 0.05 87 1006.6
20260506021840 16 261 3.2 0.0 0.00 0.00 0.05 86 1007.1
20260506021553 16 261 1.6 0.0 0.00 0.00 0.05 85 1006.6
20260506020052 16 240 0.0 0.0 0.00 0.00 0.05 84 1006.3
20260506014850 17 241 1.6 0.0 0.00 0.00 0.05 83 1007.1
20260506014556 16 248 1.6 0.0 0.00 0.00 0.05 83 1006.7
20260506013350 17 215 1.6 0.0 0.00 0.00 0.05 81 1007.0
20260506013051 16 221 1.6 0.0 0.00 0.00 0.05 81 1006.5
20260506011850 17 267 0.0 0.0 0.00 0.00 0.05 81 1007.0
20260506011541 16 267 0.0 0.0 0.00 0.00 0.05 82 1006.6